Weather History for McComb, MS

Change the Weather History Date:

Sunday, February 3, 2013

  Actual Average Record
Temperature  
Mean Temperature 52 °F -  
Max Temperature 66 °F 59 °F 81 °F (1990)
Min Temperature 39 °F 36 °F 10 °F (1951)
Degree Days  
Heating Degree Days 12    
Growing Degree Days 2 (Base 50)    
Moisture  
Dew Point 40 °F    
Average Humidity 80    
Maximum Humidity 100    
Minimum Humidity 19    
Precipitation  
Precipitation 0.00 in - - ()
Sea Level Pressure  
Sea Level Pressure 30.22 in    
Wind  
Wind Speed 1 mph (NNW)    
Max Wind Speed 13 mph    
Max Gust Speed 20 mph    
Visibility 6 miles    
Events Fog    
Averages and records for this station are not official NWS values.
T = Trace of Precipitation, MM = Missing Value Source: NWS Daily Summary

Daily Weather History Graph

Daily Weather History Graph

Search for Another Location

Airport:

Trip Planner

Search our weather history database for the weather conditions in past years. The results will help you decide how hot, cold, wet, or windy it might be!

Date:

Astronomy

Feb. 03, 2013 Rise Set
Actual Time 6:52 AM CST 5:39 PM CST
Civil Twilight 6:27 AM CST 6:04 PM CST
Nautical Twilight 5:58 AM CST 6:33 PM CST
Astronomical Twilight 5:29 AM CST 7:01 PM CST
Moon 12:19 AM CST (2/3) 11:18 AM CST (2/3)
Length of Visible Light 11h 37m
Length of Day
10h 46m
Waning Gibbous, 48% of the Moon is Illuminated
Feb 3
Waning Gibbous
Feb 10
New
Feb 17
First Quarter
Feb 25
Full
Mar 4
Last Quarter

Hourly Weather History & Observations

Time (CST) Temp. Dew Point Humidity Pressure Visibility Wind Dir Wind Speed Gust Speed Precip Events Conditions
12:53 AM 54.0 °F 48.0 °F 80% 30.23 in 10.0 mi North 3.5 mph - N/A   Overcast
1:53 AM 51.1 °F 48.9 °F 92% 30.23 in 10.0 mi Calm Calm - N/A   Mostly Cloudy
2:53 AM 48.0 °F 46.9 °F 96% 30.23 in 4.0 mi Calm Calm - N/A   Scattered Clouds
2:56 AM 46.4 °F 46.4 °F 100% 30.23 in 1.8 mi Calm Calm - N/A   Mostly Cloudy
3:05 AM 46.4 °F 46.4 °F 100% 30.23 in 0.8 mi Calm Calm - N/A   Mostly Cloudy
3:10 AM 46.4 °F 46.4 °F 100% 30.23 in 2.0 mi Calm Calm - N/A   Mostly Cloudy
3:17 AM 46.4 °F 46.4 °F 100% 30.23 in 6.0 mi Calm Calm - N/A   Overcast
3:43 AM 46.4 °F 44.6 °F 93% 30.23 in 1.5 mi Calm Calm - N/A   Partly Cloudy
3:51 AM 44.6 °F 44.6 °F 100% 30.23 in 0.5 mi Calm Calm - N/A Fog Fog
3:53 AM 45.0 °F 44.1 °F 97% 30.22 in 0.2 mi Calm Calm - N/A Fog Fog
4:00 AM 44.6 °F 44.6 °F 100% 30.22 in 0.5 mi Calm Calm - N/A Fog Fog
4:08 AM 44.6 °F 44.6 °F 100% 30.22 in 1.2 mi Calm Calm - N/A   Partly Cloudy
4:28 AM 42.8 °F 42.8 °F 100% 30.22 in 4.0 mi Calm Calm - N/A   Clear
4:53 AM 42.1 °F 42.1 °F 100% 30.22 in 4.0 mi Calm Calm - N/A   Clear
4:56 AM 42.8 °F 42.8 °F 100% 30.23 in 1.8 mi Calm Calm - N/A   Clear
5:07 AM 42.8 °F 42.8 °F 100% 30.23 in 2.5 mi Calm Calm - N/A   Partly Cloudy
5:12 AM 41.0 °F 41.0 °F 100% 30.23 in 1.0 mi Calm Calm - N/A   Mist
5:18 AM 42.8 °F 42.8 °F 100% 30.24 in 1.0 mi Calm Calm - N/A   Clear
5:23 AM 42.8 °F 42.8 °F 100% 30.24 in 0.8 mi Calm Calm - N/A   Mist
5:39 AM 42.8 °F 41.0 °F 93% 30.24 in 1.5 mi Calm Calm - N/A   Partly Cloudy
5:48 AM 41.0 °F 41.0 °F 100% 30.24 in 0.8 mi Calm Calm - N/A   Mist
5:53 AM 41.0 °F 39.9 °F 96% 30.24 in 0.8 mi Calm Calm - N/A   Mist
5:58 AM 41.0 °F 41.0 °F 100% 30.25 in 1.2 mi Calm Calm - N/A   Partly Cloudy
6:04 AM 41.0 °F 41.0 °F 100% 30.25 in 3.0 mi Calm Calm - N/A   Partly Cloudy
6:09 AM 39.2 °F 39.2 °F 100% 30.25 in 1.8 mi Calm Calm - N/A   Partly Cloudy
6:53 AM 39.9 °F 39.0 °F 97% 30.26 in 8.0 mi Calm Calm - N/A   Clear
7:53 AM 43.0 °F 43.0 °F 100% 30.28 in 5.0 mi Calm Calm - N/A   Clear
8:53 AM 52.0 °F 46.0 °F 80% 30.28 in 10.0 mi NW 4.6 mph - N/A   Clear
9:53 AM 55.9 °F 41.0 °F 57% 30.29 in 10.0 mi Variable 3.5 mph - N/A   Clear
10:53 AM 59.0 °F 33.1 °F 38% 30.28 in 10.0 mi NNE 4.6 mph - N/A   Clear
11:53 AM 63.0 °F 32.0 °F 31% 30.25 in 10.0 mi NW 6.9 mph 18.4 mph N/A   Clear
12:53 PM 64.9 °F 28.0 °F 25% 30.22 in 10.0 mi NW 11.5 mph 16.1 mph N/A   Clear
1:53 PM 66.0 °F 24.1 °F 20% 30.18 in 10.0 mi NW 12.7 mph 19.6 mph N/A   Clear
2:53 PM 66.9 °F 23.0 °F 19% 30.16 in 10.0 mi NW 11.5 mph 16.1 mph N/A   Clear
3:53 PM 66.9 °F 24.1 °F 20% 30.15 in 10.0 mi NNW 6.9 mph - N/A   Clear
4:53 PM 64.9 °F 26.1 °F 23% 30.15 in 10.0 mi NNW 8.1 mph - N/A   Clear
5:53 PM 55.9 °F 35.1 °F 45% 30.15 in 10.0 mi Calm Calm - N/A   Clear
6:53 PM 50.0 °F 37.0 °F 61% 30.15 in 10.0 mi Calm Calm - N/A   Clear
7:53 PM 48.0 °F 37.0 °F 66% 30.17 in 10.0 mi Calm Calm - N/A   Clear
8:53 PM 45.0 °F 36.0 °F 71% 30.16 in 10.0 mi Calm Calm - N/A   Clear
9:53 PM 43.0 °F 37.0 °F 80% 30.15 in 10.0 mi Calm Calm - N/A   Clear
10:53 PM 42.1 °F 35.1 °F 76% 30.15 in 10.0 mi Calm Calm - N/A   Clear
11:53 PM 43.0 °F 37.0 °F 80% 30.12 in 10.0 mi Calm Calm - N/A   Clear